Stations météo

Publicité
Freiburg, Allemagne (10803): Température de l'air & dewpoint: 14.07.2018 14:00:00 - 20.07.2018 14:00:00 (CEST)Freiburg, Allemagne (10803): Température de l'air 5cm & Température de l'air -5cm: 14.07.2018 14:00:00 - 20.07.2018 14:00:00 (CEST)Freiburg, Allemagne (10803): Température de l'air -20cm & Température de l'air -100cm: 14.07.2018 14:00:00 - 20.07.2018 14:00:00 (CEST)Freiburg, Allemagne (10803): Vitesse du vent & gusts: 14.07.2018 14:00:00 - 20.07.2018 14:00:00 (CEST)Freiburg, Allemagne (10803): Direction du vent: 14.07.2018 14:00:00 - 20.07.2018 14:00:00 (CEST)Freiburg, Allemagne (10803): reduced air pressure: 14.07.2018 14:00:00 - 20.07.2018 14:00:00 (CEST)Freiburg, Allemagne (10803): visibility: 14.07.2018 14:00:00 - 20.07.2018 14:00:00 (CEST)Freiburg, Allemagne (10803): Ensoleillement: 14.07.2018 14:00:00 - 20.07.2018 14:00:00 (CEST)Freiburg, Allemagne (10803): Quantités de précipitations: 14.07.2018 14:00:00 - 20.07.2018 14:00:00 (CEST)
Date & Time tt [°C] td [°C] tt 5cm [°C] tt -5cm [°C] tt -20cm [°C] tt -100cm [°C] ff [km/h] ff [knt] fx [km/h] fx [knt] dd ppp [hPa] vv [km] sd [min] rr [mm]
20.07.2018 14:00:00 30,3 11,9 39,4 39,4 26,8 21,1 14 8 26 14 NNW 1011,2 13 60 0,0
20.07.2018 13:00:00 29,4 10,1 37,6 37,9 25,9 21,1 5 3 18 10 WNW 1011,8 32 60 0,0
20.07.2018 12:00:00 27,7 10,7 35,8 35,2 25,2 21,1 7 4 19 11 W 1012,4 31 60 0,0
20.07.2018 11:00:00 26,3 11,7 31,6 31,5 24,7 21,1 7 4 16 9 WSW 1012,9 24 60 0,0
20.07.2018 10:00:00 24,3 11,6 29,0 28,2 24,4 21,1 8 4 11 6 WSW 1013,4 20 60 0,0
20.07.2018 09:00:00 21,6 12,6 25,1 24,3 24,4 21,1 5 3 9 5 NNW 1013,7 21 36 0,0
20.07.2018 08:00:00 21,2 11,8 24,5 23,1 24,6 21,1 5 3 6 4 W 1013,6 26 58 0,0
20.07.2018 07:00:00 16,3 11,5 16,0 20,4 25,0 21,1 0 0 4 2 N 1014,3 29 12 0,0
20.07.2018 06:00:00 16,2 11,9 13,7 20,8 25,4 21,1 2 1 6 3 SSW 1014,2 27 0 0,0
20.07.2018 05:00:00 15,1 12,0 14,0 21,0 25,8 21,1 5 3 8 4 NNW 1014,3 25 0 0,0
20.07.2018 04:00:00 16,8 12,3 14,8 21,7 26,2 21,1 9 5 11 6 NNW 1014,3 29 0 0,0
20.07.2018 03:00:00 17,1 12,1 14,9 22,5 26,6 21,1 2 1 6 3 NE 1014,6 32 0 0,0
20.07.2018 02:00:00 18,0 12,6 16,1 23,2 27,0 21,1 3 2 8 4 NE 1015,1 34 0 0,0
20.07.2018 01:00:00 17,8 12,2 15,9 23,7 27,5 21,1 4 2 6 3 NNE 1015,0 33 0 0,0
20.07.2018 00:00:00 19,6 12,4 16,6 24,8 28,0 21,1 0 0 5 3 N 1014,9 34 0 0,0
19.07.2018 23:00:00 21,4 11,5 18,0 26,1 28,4 21,1 2 1 11 6 NNW 1014,8 35 0 0,0
19.07.2018 22:00:00 23,8 10,9 21,3 27,4 28,8 21,1 9 5 13 7 N 1014,2 35 0 0,0
19.07.2018 21:00:00 26,0 10,0 24,9 29,6 29,0 21,1 10 5 20 11 NNW 1013,7 38 29 0,0
19.07.2018 20:00:00 28,1 9,5 30,5 32,2 29,1 21,0 14 8 22 12 NNW 1013,2 22 56 0,0
19.07.2018 19:00:00 28,8 9,8 32,6 34,2 29,0 21,0 12 7 23 12 NNW 1013,3 15 38 0,0
19.07.2018 18:00:00 28,3 9,7 30,8 35,1 28,8 21,0 15 8 26 14 N 1013,6 12 49 0,0
19.07.2018 17:00:00 29,4 9,5 35,3 37,7 28,3 21,0 14 8 34 18 N 1013,8 9 60 0,0
19.07.2018 16:00:00 29,7 9,4 36,8 38,3 27,7 21,0 14 8 41 22 N 1014,1 8 60 0,0
19.07.2018 15:00:00 29,4 10,2 36,2 38,1 27,0 21,0 22 12 33 18 NW 1014,4 7 60 0,0
19.07.2018 14:00:00 28,9 10,8 36,2 37,3 26,2 21,0 21 11 33 18 NNW 1014,7 5 60 0,0
19.07.2018 13:00:00 28,2 12,1 35,9 35,5 25,5 21,0 21 11 31 17 NNW 1015,3 12 60 0,0
19.07.2018 12:00:00 26,5 13,5 34,6 33,6 24,9 21,0 16 8 22 12 NNW 1015,9 13 60 0,0
19.07.2018 11:00:00 24,2 11,9 32,5 30,6 24,4 21,0 9 5 17 9 NNW 1016,2 23 60 0,0
19.07.2018 10:00:00 22,9 13,0 29,6 27,5 24,1 21,0 8 4 12 6 NNW 1016,2 21 60 0,0
19.07.2018 09:00:00 20,2 13,1 24,4 24,0 24,1 21,0 5 3 12 6 N 1016,8 25 60 0,0
19.07.2018 08:00:00 17,6 13,3 21,3 21,5 24,4 21,0 7 4 10 5 NNW 1017,1 11 60 0,0
19.07.2018 07:00:00 15,9 13,3 15,9 20,2 24,7 21,0 2 1 4 2 NNE 1017,1 21 5 0,0
19.07.2018 06:00:00 14,7 12,8 12,2 20,0 25,1 21,0 0 0 6 3 N 1016,9 20 0 0,0
19.07.2018 05:00:00 16,4 13,5 12,8 20,6 25,6 21,0 3 2 10 5 NE 1016,8 27 0 0,0
19.07.2018 04:00:00 17,3 13,1 15,2 21,3 26,0 21,0 4 2 11 6 NNE 1016,7 35 0 0,0
19.07.2018 03:00:00 18,0 13,1 15,2 21,9 26,5 20,9 5 3 12 7 N 1016,6 31 0 0,0
19.07.2018 02:00:00 18,9 13,2 14,7 22,5 27,0 20,9 4 2 8 5 N 1016,4 33 0 0,0
19.07.2018 01:00:00 18,0 13,2 15,7 23,4 27,5 20,9 3 2 6 4 N 1016,1 34 0 0,0
19.07.2018 00:00:00 18,8 13,3 15,9 24,4 28,0 20,9 3 2 6 3 N 1015,9 32 0 0,0
18.07.2018 23:00:00 20,4 13,2 16,8 25,6 28,5 20,9 4 2 13 7 NNE 1015,5 37 0 0,0
18.07.2018 22:00:00 22,4 12,8 20,3 27,3 28,9 20,9 9 5 13 7 N 1015,1 38 0 0,0
18.07.2018 21:00:00 25,7 12,4 24,6 29,5 29,2 20,9 7 4 20 11 N 1014,4 39 31 0,0
18.07.2018 20:00:00 27,2 12,5 28,7 31,9 29,3 20,9 12 6 22 12 NNW 1014,0 26 60 0,0
18.07.2018 19:00:00 28,2 11,8 31,6 34,6 29,2 20,9 14 8 24 13 NNW 1013,8 10 60 0,0
18.07.2018 18:00:00 29,2 12,8 34,7 36,9 28,9 20,9 13 7 27 14 NNW 1014,1 11 60 0,0
18.07.2018 17:00:00 29,3 12,3 36,0 38,8 28,4 20,9 15 8 27 14 NW 1014,5 10 60 0,0
18.07.2018 16:00:00 28,8 11,7 36,7 39,5 27,7 20,9 12 7 24 13 N 1014,9 13 60 0,0
18.07.2018 15:00:00 28,0 12,4 35,3 39,6 26,9 20,9 12 6 21 11 NW 1015,3 16 60 0,0
18.07.2018 14:00:00 27,1 13,0 35,9 38,2 26,0 20,9 9 5 24 13 NNW 1015,9 7 60 0,0
18.07.2018 13:00:00 26,9 14,6 35,5 36,2 25,2 20,9 12 6 21 11 NW 1016,2 20 60 0,0
18.07.2018 12:00:00 25,1 14,2 33,6 33,8 24,5 20,9 9 5 19 11 N 1016,9 16 60 0,0
18.07.2018 11:00:00 24,3 13,6 32,0 30,6 24,0 20,9 8 5 15 8 NNW 1017,2 17 60 0,0
18.07.2018 10:00:00 22,5 13,5 28,8 27,3 23,7 20,9 7 4 11 6 NNW 1017,6 30 60 0,0
18.07.2018 09:00:00 20,8 12,9 26,0 24,1 23,7 20,9 7 4 11 6 NNW 1017,7 24 60 0,0
18.07.2018 08:00:00 18,7 12,7 22,5 21,2 23,9 20,9 3 2 6 3 NNW 1017,8 30 60 0,0
18.07.2018 07:00:00 15,0 12,7 15,0 19,4 24,3 20,9 0 0 6 3 N 1018,0 20 18 0,0
18.07.2018 06:00:00 13,9 12,7 11,4 19,4 24,7 20,8 2 1 4 2 N 1018,0 17 0 0,0
18.07.2018 05:00:00 14,0 12,7 11,8 20,0 25,1 20,8 2 1 7 4 NNW 1018,1 19 0 0,0
18.07.2018 04:00:00 15,5 13,1 12,2 20,7 25,6 20,8 2 1 8 5 NE 1017,9 23 0 0,0
18.07.2018 03:00:00 15,9 13,8 13,3 21,5 26,0 20,8 5 3 7 4 WSW 1017,8 25 0 0,0
18.07.2018 02:00:00 17,8 14,2 14,7 22,5 26,5 20,8 4 2 12 7 NNW 1017,5 34 0 0,0
18.07.2018 01:00:00 19,8 13,7 16,5 23,7 26,9 20,8 4 2 11 6 SSW 1017,2 36 0 0,0
18.07.2018 00:00:00 20,9 13,4 20,2 24,9 27,3 20,8 6 3 13 7 W 1017,5 42 0 0,0
17.07.2018 23:00:00 20,4 13,7 19,2 25,4 27,7 20,8 9 5 12 7 NNW 1017,1 38 0 0,0
17.07.2018 22:00:00 22,7 12,6 19,2 26,7 28,1 20,8 3 2 15 8 WSW 1016,1 34 0 0,0
17.07.2018 21:00:00 23,7 13,4 21,8 28,5 28,3 20,8 0 0 12 6 N 1015,5 36 0 0,0
17.07.2018 20:00:00 26,2 11,8 25,6 31,1 28,4 20,8 8 4 16 9 NW 1014,8 45 48 0,0
17.07.2018 19:00:00 27,7 11,8 31,9 33,1 28,3 20,8 8 5 28 15 W 1014,6 32 28 0,0
17.07.2018 18:00:00 28,5 10,0 32,5 35,9 28,0 20,8 13 7 22 12 WSW 1014,5 32 56 0,0
17.07.2018 17:00:00 28,8 11,6 34,2 37,3 27,5 20,8 16 9 28 15 WSW 1014,5 15 60 0,0
17.07.2018 16:00:00 28,7 9,8 34,0 37,1 26,9 20,8 16 9 29 16 WSW 1014,6 16 60 0,0
17.07.2018 15:00:00 26,9 9,7 33,2 34,6 26,5 20,8 23 12 34 18 S 1015,2 11 30 0,0
17.07.2018 14:00:00 24,6 12,6 26,4 34,2 25,8 20,8 24 13 42 23 W 1015,4 40 36 0,0
17.07.2018 13:00:00 28,0 11,0 36,0 36,0 25,0 20,8 11 6 27 15 W 1014,7 29 60 0,0
17.07.2018 12:00:00 26,7 12,7 33,5 33,1 24,3 20,8 13 7 22 12 WSW 1015,1 23 60 0,0
17.07.2018 11:00:00 25,9 13,9 31,2 29,9 23,8 20,7 15 8 26 14 SSW 1015,2 30 60 0,0
17.07.2018 10:00:00 24,4 13,2 28,2 26,9 23,5 20,7 13 7 24 13 WSW 1015,1 30 60 0,0
17.07.2018 09:00:00 22,4 12,6 24,0 23,6 23,5 20,7 9 5 16 8 SW 1015,3 43 60 0,0
17.07.2018 08:00:00 19,1 13,5 22,2 20,9 23,7 20,7 4 2 5 3 NNW 1015,4 36 60 0,0
17.07.2018 07:00:00 14,9 12,4 15,1 19,1 24,1 20,7 3 2 5 3 N 1015,5 30 18 0,0
17.07.2018 06:00:00 13,6 11,6 10,9 19,1 24,5 20,7 0 0 5 3 N 1015,3 32 0 0,0
17.07.2018 05:00:00 13,9 11,9 11,5 19,6 25,0 20,7 4 2 6 3 NNE 1014,8 32 0 0,0
17.07.2018 04:00:00 14,2 11,7 11,1 20,2 25,4 20,7 2 1 8 5 N 1014,4 32 0 0,0
17.07.2018 03:00:00 14,7 12,4 11,9 21,0 25,9 20,7 3 2 8 4 NW 1014,1 33 0 0,0
17.07.2018 02:00:00 15,9 12,4 12,6 21,8 26,4 20,7 0 0 6 4 N 1013,9 36 0 0,0
17.07.2018 01:00:00 16,8 13,0 13,6 22,7 26,9 20,7 0 0 6 3 N 1013,7 44 0 0,0
17.07.2018 00:00:00 20,1 13,2 15,2 23,7 27,5 20,7 6 3 9 5 W 1012,9 52 0 0,0
16.07.2018 23:00:00 19,2 12,6 15,2 25,0 28,0 20,7 3 1 4 2 SSW 1012,6 60 0 0,0
16.07.2018 22:00:00 23,3 12,4 17,9 26,7 28,4 20,7 4 2 14 8 NNE 1011,4 70 0 0,0
16.07.2018 21:00:00 25,2 11,6 24,1 29,0 28,7 20,7 9 5 19 10 NNW 1010,6 70 33 0,0
16.07.2018 20:00:00 26,9 11,3 28,8 31,4 28,7 20,7 14 8 22 12 NNW 1009,9 60 60 0,0
16.07.2018 19:00:00 27,8 9,9 32,9 34,0 28,6 20,7 12 7 21 12 N 1009,4 50 60 0,0
16.07.2018 18:00:00 28,4 11,1 32,9 36,0 28,3 20,7 18 10 25 14 NW 1009,6 29 60 0,0
16.07.2018 17:00:00 28,1 10,7 35,6 37,5 27,7 20,7 16 8 29 16 NNW 1009,9 37 60 0,0
16.07.2018 16:00:00 27,8 11,8 35,1 38,2 27,0 20,6 15 8 25 14 NNW 1010,2 47 60 0,0
16.07.2018 15:00:00 27,6 11,0 36,7 38,2 26,2 20,6 9 5 24 13 NNW 1010,8 39 60 0,0
16.07.2018 14:00:00 27,1 12,6 35,2 36,8 25,3 20,6 9 5 24 13 NW 1011,5 63 60 0,0
16.07.2018 13:00:00 25,8 13,5 34,0 34,9 24,5 20,6 10 6 20 11 NW 1012,3 32 60 0,0
16.07.2018 12:00:00 24,1 14,3 31,5 32,3 23,8 20,6 9 5 16 9 NW 1012,9 41 60 0,0
16.07.2018 11:00:00 22,4 13,9 30,1 29,1 23,3 20,6 8 4 15 8 NW 1013,3 32 60 0,0
16.07.2018 10:00:00 21,1 15,7 27,8 25,9 23,0 20,6 7 4 11 6 NNW 1013,8 33 60 0,0
16.07.2018 09:00:00 19,4 14,5 23,4 22,7 23,0 20,6 4 2 8 4 W 1014,5 28 59 0,0
16.07.2018 08:00:00 18,3 13,3 20,0 20,2 23,2 20,6 4 2 10 5 SW 1014,8 35 60 0,0
16.07.2018 07:00:00 15,6 14,2 15,3 18,6 23,6 20,6 5 3 9 5 WSW 1015,2 16 19 0,0
16.07.2018 06:00:00 15,1 13,8 12,7 18,7 24,0 20,6 4 2 10 5 N 1015,0 19 0 0,0
16.07.2018 05:00:00 15,8 14,9 12,6 19,4 24,4 20,6 0 0 5 3 N 1014,8 21 0 0,0
16.07.2018 04:00:00 15,7 14,4 13,2 20,2 24,8 20,6 2 1 13 7 SSW 1015,1 26 0 0,0
16.07.2018 03:00:00 16,9 15,0 16,3 21,1 25,2 20,6 8 4 11 6 WNW 1015,0 29 0 0,0
16.07.2018 02:00:00 17,1 15,1 16,7 21,5 25,6 20,5 5 3 12 7 N 1014,8 28 0 0,0
16.07.2018 01:00:00 18,8 15,1 17,2 21,9 26,1 20,5 11 6 16 8 S 1015,1 37 0 0,1
16.07.2018 00:00:00 18,4 15,4 17,4 22,5 26,6 20,5 12 6 18 10 SW 1015,9 17 0 0,0
15.07.2018 23:00:00 18,0 15,7 17,1 23,3 27,1 20,5 3 1 12 6 W 1015,6 31 0 0,0
15.07.2018 22:00:00 18,8 16,0 17,8 24,2 27,6 20,5 6 3 24 13 N 1015,5 23 0 0,2
15.07.2018 21:00:00 20,0 16,2 18,2 25,6 28,1 20,5 10 5 30 16 W 1015,4 15 0 0,1
15.07.2018 20:00:00 21,8 17,5 21,0 27,5 28,5 20,5 9 5 16 9 SW 1014,2 26 0 0,1
15.07.2018 19:00:00 22,0 18,0 20,9 29,8 28,7 20,5 16 8 32 17 WNW 1013,6 9 0 0,2
15.07.2018 18:00:00 25,9 14,0 27,7 33,7 28,5 20,5 11 6 24 13 NNW 1012,8 39 27 0,0
15.07.2018 17:00:00 27,2 12,8 32,8 35,6 28,1 20,5 16 9 25 13 NNW 1012,8 30 37 0,0
15.07.2018 16:00:00 27,7 12,3 36,6 38,0 27,5 20,5 12 7 24 13 NNE 1012,9 31 59 0,0
15.07.2018 15:00:00 26,8 14,0 32,7 37,8 26,7 20,5 16 9 25 13 NNW 1013,5 22 54 0,0
15.07.2018 14:00:00 27,0 15,4 36,4 36,6 25,8 20,5 10 5 22 12 N 1013,6 23 59 0,0
15.07.2018 13:00:00 26,0 15,8 34,4 35,2 25,1 20,4 10 5 20 11 N 1014,2 22 60 0,0
15.07.2018 12:00:00 25,5 16,9 34,6 32,8 24,4 20,4 13 7 21 11 N 1014,8 22 60 0,0
15.07.2018 11:00:00 25,4 16,6 33,1 29,6 23,9 20,4 11 6 21 11 NNW 1015,1 25 60 0,0
15.07.2018 10:00:00 25,3 12,3 28,9 26,2 23,8 20,4 8 4 27 15 SE 1014,8 23 60 0,0
15.07.2018 09:00:00 22,7 13,3 24,4 22,7 23,9 20,4 16 8 24 13 SE 1015,5 22 29 0,0
15.07.2018 08:00:00 18,3 16,4 17,5 21,3 24,2 20,4 4 2 11 6 S 1016,4 12 0 0,1
15.07.2018 07:00:00 17,2 15,7 17,3 21,4 24,5 20,4 8 4 16 9 NNW 1016,8 13 0 0,0
15.07.2018 06:00:00 17,2 15,3 16,7 21,6 24,7 20,4 4 2 19 10 N 1016,4 12 0 0,0
15.07.2018 05:00:00 18,5 13,8 17,7 21,9 25,1 20,4 8 4 13 7 NNW 1016,1 23 0 0,0
15.07.2018 04:00:00 18,5 13,5 16,1 22,2 25,4 20,4 4 2 7 4 S 1015,7 22 0 0,0
15.07.2018 03:00:00 18,4 13,5 17,6 22,6 25,8 20,4 0 0 5 3 N 1015,5 21 0 0,0
15.07.2018 02:00:00 18,6 13,4 16,8 23,1 26,2 20,4 4 2 6 4 NW 1016,0 27 0 0,0
15.07.2018 01:00:00 18,3 13,7 17,4 23,6 26,6 20,4 2 1 6 3 NW 1016,1 23 0 0,0
15.07.2018 00:00:00 18,8 13,1 16,4 24,1 27,1 20,4 2 1 10 5 N 1015,9 18 0 0,0
14.07.2018 23:00:00 19,3 13,5 17,7 25,1 27,6 20,4 4 2 8 4 N 1015,7 28 0 0,0
14.07.2018 22:00:00 20,8 12,6 17,2 26,5 28,0 20,4 2 1 5 3 S 1015,5 27 0 0,0
14.07.2018 21:00:00 25,0 12,2 22,3 28,8 28,2 20,4 4 2 12 6 NNW 1014,8 35 32 0,0
14.07.2018 20:00:00 27,1 11,2 28,8 31,0 28,3 20,3 9 5 16 9 NNW 1014,5 37 56 0,0
14.07.2018 19:00:00 28,6 11,6 32,9 32,7 28,2 20,3 8 4 18 10 NNW 1014,6 37 59 0,0
14.07.2018 18:00:00 28,6 10,7 33,7 34,6 28,0 20,3 12 7 23 13 NNW 1015,0 31 60 0,0
14.07.2018 17:00:00 28,8 12,2 33,5 35,4 27,7 20,3 15 8 22 12 NNW 1015,2 30 23 0,0
14.07.2018 16:00:00 28,9 11,9 34,1 36,6 27,1 20,3 10 5 21 11 NNW 1015,6 35 49 0,0
14.07.2018 15:00:00 28,7 11,6 35,5 37,7 26,3 20,3 12 7 22 12 NW 1015,8 34 60 0,0
14.07.2018 14:00:00 28,7 12,1 38,2 37,4 25,4 20,3 13 7 24 13 NNW 1016,4 27 60 0,0

tt = Température de l'air
td = dewpoint
tt 5cm = Température de l'air 5cm
tt -5cm = Température de l'air -5cm
tt -20cm = Température de l'air -20cm
tt -100cm = Température de l'air -100cm
ff = Vitesse du vent
fx = gusts
dd = Direction du vent
ppp = reduced air pressure
vv = visibility
sd = Ensoleillement
rr = Quantités de précipitations

stations d'obs. à proximité